DW8522 Weather Reports


time (UTC)temp
F
wind
direction
speed
knots
gust
knots
rain 1hr
in
rain 24hr
in
rain mn
in
humidity
%
barometer
mb
20260904194503 54 163 2.6 8.7 0.00 0.03 0.00 81 1017.9
20260904193100 54 230 2.6 7.8 0.00 0.03 0.00 82 1017.8
20260904191558 53 197 3.5 7.8 0.00 0.03 0.00 83 1017.6
20260904190058 53 213 2.6 7.0 0.00 0.03 0.00 83 1017.5
20260904184555 53 284 2.6 11.3 0.00 0.03 0.00 82 1017.2
20260904183111 53 260 3.5 13.0 0.00 0.03 0.00 82 1017.2
20260904181551 53 194 4.3 9.6 0.00 0.03 0.00 82 1017.3
20260904180050 53 245 3.5 8.7 0.00 0.03 0.00 82 1017.2
20260904174548 53 296 3.5 9.6 0.00 0.03 0.00 82 1017.0
20260904173045 53 231 4.3 9.6 0.00 0.03 0.00 82 1016.9
20260904171544 53 219 3.5 9.6 0.00 0.03 0.00 82 1016.9
20260904170041 53 257 3.5 8.7 0.00 0.03 0.00 83 1016.8
20260904164538 53 229 4.3 11.3 0.00 0.03 0.00 83 1016.7
20260904163036 53 263 4.3 8.7 0.00 0.03 0.00 83 1016.3
20260904161533 53 281 3.5 9.6 0.00 0.03 0.00 82 1016.2
20260904160031 54 290 3.5 7.0 0.00 0.03 0.00 82 1016.1
20260904154529 54 277 2.6 10.4 0.00 0.03 0.00 81 1015.7
20260904153027 54 267 3.5 10.4 0.00 0.03 0.00 81 1015.6
20260904151527 55 269 3.5 7.8 0.00 0.03 0.00 80 1015.7
20260904150027 55 253 3.5 7.8 0.00 0.03 0.00 80 1015.9
20260904144524 55 239 3.5 10.4 0.00 0.03 0.00 80 1015.8
20260904143021 55 315 1.7 8.7 0.00 0.03 0.00 79 1015.9
20260904141520 56 205 2.6 7.8 0.00 0.03 0.00 79 1015.9
20260904140020 55 136 1.7 4.3 0.00 0.03 0.00 80 1015.8
20260904134521 55 244 1.7 4.3 0.00 0.03 0.00 81 1015.6
20260904133017 55 242 2.6 7.0 0.00 0.03 0.00 82 1015.6
20260904131515 54 117 0.0 1.7 0.00 0.03 0.00 82 1015.5
20260904130028 55 150 0.0 2.6 0.00 0.03 0.00 80 1015.2
20260904124510 55 132 0.0 2.6 0.00 0.03 0.00 79 1015.2
20260904123016 55 132 0.0 4.3 0.00 0.03 0.00 79 1015.0
20260904121504 56 138 2.6 9.6 0.00 0.03 0.00 79 1014.8
20260904120113 55 290 1.7 7.8 0.00 0.03 0.00 79 1014.5
20260904114502 56 193 0.9 11.3 0.00 0.03 0.03 79 1014.6
20260904113001 55 238 1.7 5.2 0.00 0.03 0.03 79 1014.4
20260904111600 56 205 0.9 7.0 0.00 0.03 0.03 79 1014.2
20260904110059 55 184 1.7 9.6 0.00 0.03 0.03 79 1013.9
20260904104558 55 191 1.7 6.1 0.00 0.05 0.03 79 1013.9
20260904103057 56 214 3.5 11.3 0.00 0.05 0.03 78 1014.0
20260904101555 56 183 3.5 10.4 0.00 0.05 0.03 78 1013.9
20260904100056 56 217 2.6 9.6 0.00 0.05 0.03 78 1013.9
20260904094552 56 326 3.5 10.4 0.00 0.05 0.03 78 1013.7
20260904093051 56 269 2.6 10.4 0.00 0.05 0.03 78 1013.5
20260904091552 57 278 2.6 8.7 0.00 0.05 0.03 79 1013.3
20260904090047 57 277 4.3 10.4 0.00 0.05 0.03 78 1013.0
20260904084544 58 230 3.5 13.9 0.00 0.05 0.03 79 1012.8
20260904083044 58 252 3.5 10.4 0.00 0.05 0.03 80 1012.2
20260904081548 58 207 4.3 11.3 0.00 0.05 0.03 81 1011.9
20260904080043 59 287 6.1 13.9 0.00 0.05 0.03 83 1011.7
20260904074539 59 259 4.3 12.2 0.00 0.05 0.03 82 1011.4
20260904073036 60 238 4.3 11.3 0.00 0.05 0.03 79 1011.1
20260904071535 60 263 7.0 20.9 0.00 0.05 0.03 80 1010.5
20260904070035 60 231 6.1 14.8 0.00 0.05 0.03 82 1010.5
20260904064534 61 250 6.1 11.3 0.00 0.05 0.03 82 1010.7
20260904063038 61 256 6.1 13.0 0.00 0.05 0.03 83 1010.6
20260904061541 62 235 4.3 15.6 0.00 0.05 0.03 84 1010.5
20260904060132 62 305 4.3 14.8 0.00 0.05 0.03 85 1010.3
20260904054536 62 252 4.3 8.7 0.00 0.05 0.03 88 1010.2
20260904053031 62 309 4.3 12.2 0.00 0.05 0.03 89 1009.9
20260904051530 62 316 3.5 13.0 0.00 0.05 0.03 89 1010.0
20260904050029 62 217 5.2 12.2 0.00 0.05 0.03 87 1009.8
20260904044540 62 103 1.7 8.7 0.00 0.05 0.03 87 1009.7
20260904043035 62 127 1.7 7.8 0.00 0.05 0.03 86 1009.6
20260904041527 62 285 3.5 7.8 0.00 0.05 0.03 85 1009.4
20260904040027 62 301 4.3 12.2 0.00 0.05 0.03 85 1009.7
20260904034525 62 277 5.2 10.4 0.00 0.05 0.03 87 1009.7
20260904033024 62 333 5.2 12.2 0.00 0.05 0.03 86 1009.9
20260904031523 62 250 5.2 15.6 0.03 0.05 0.03 87 1010.0
20260904030023 61 318 6.1 11.3 0.03 0.05 0.03 89 1010.4
20260904024519 60 284 1.7 13.0 0.03 0.05 0.03 91 1010.6
20260904023016 60 316 4.3 9.6 0.03 0.05 0.03 89 1010.8
20260904021522 61 64 3.5 11.3 0.00 0.02 0.00 85 1010.8
20260904020015 62 113 2.6 8.7 0.00 0.02 0.00 82 1010.7
20260904014512 62 245 4.3 12.2 0.00 0.02 0.00 83 1011.1
20260904013009 61 221 5.2 9.6 0.00 0.02 0.00 85 1011.8
20260904011507 61 333 3.5 11.3 0.00 0.02 0.00 85 1012.1
20260904010005 61 236 5.2 12.2 0.00 0.02 0.00 83 1012.5
20260904004504 63 304 4.3 11.3 0.00 0.02 0.00 79 1012.5
20260904003003 63 288 3.5 10.4 0.00 0.02 0.00 75 1012.7
20260904001601 63 276 2.6 12.2 0.00 0.02 0.00 74 1012.9
20260904000058 63 344 4.3 13.0 0.00 0.02 0.00 77 1013.4
20260903234558 62 328 3.5 8.7 0.00 0.02 0.00 78 1013.2
20260903233054 62 319 2.6 8.7 0.00 0.02 0.00 77 1013.6
20260903231603 62 295 3.5 10.4 0.00 0.02 0.00 75 1014.1
20260903230053 62 41 5.2 10.4 0.00 0.02 0.00 74 1014.2
20260903224551 63 127 2.6 9.6 0.00 0.02 0.00 72 1014.2
20260903223049 62 325 5.2 10.4 0.00 0.02 0.00 71 1014.3
20260903221548 63 264 3.5 7.8 0.00 0.02 0.00 72 1014.7
20260903220049 63 257 2.6 9.6 0.00 0.02 0.00 73 1014.5
20260903214546 62 245 5.2 12.2 0.00 0.02 0.00 74 1014.5
20260903213042 63 323 6.1 13.0 0.00 0.02 0.00 71 1014.8
20260903211540 63 288 5.2 18.2 0.00 0.02 0.00 72 1015.0
20260903210042 62 337 6.1 17.4 0.00 0.02 0.00 74 1015.2
20260903204533 61 266 7.0 12.2 0.00 0.02 0.00 76 1015.3
20260903203030 61 253 7.0 13.0 0.00 0.02 0.00 78 1015.4
20260903201526 59 322 4.3 12.2 0.00 0.02 0.00 82 1015.5
20260903200025 59 287 3.5 7.8 0.00 0.02 0.00 83 1015.6